RH
17 17 15 13 10 10 11 11 15 21 24 28 32 34 37 40 41 43 47 51 51 52 52 50 52 54 53 51 52 56 62 63 64 64 64 64 63 63 64 62 55 51 50 49 50 50 51 50 49 48 48 50 49 45 42 41 39 36 32 32 30 26 25 23 21 21 21 20 20 20 21 21 22 25 27 29 31 31 32 34 36 36 35 36 35 35
18 18 15 10 9 9 11 11 13 18 22 25 29 32 34 37 39 42 47 52 51 50 49 49 51 51 49 49 52 56 60 62 63 64 64 65 65 64 63 61 55 51 49 49 49 49 49 49 48 48 48 48 47 45 42 40 39 37 33 32 31 28 26 24 22 21 21 21 20 19 20 21 22 24 25 26 27 28 30 33 36 38 37 36 36 35
21 17 13 11 10 10 11 12 14 17 22 25 27 29 31 33 36 40 45 50 53 49 47 48 49 47 46 48 53 56 58 61 62 64 65 64 65 64 63 60 56 52 48 47 47 46 46 47 46 47 46 46 45 44 42 40 39 37 34 31 31 29 27 25 23 22 21 22 21 20 21 22 24 25 25 26 27 28 30 32 35 36 36 36 36 35
23 17 14 13 13 12 12 13 16 20 23 25 26 28 29 29 32 37 43 48 52 49 47 48 47 45 46 50 55 57 59 61 61 64 64 63 63 65 63 60 58 55 50 46 46 45 45 45 44 43 43 44 44 43 41 40 38 36 33 31 30 29 27 27 25 23 22 22 22 21 21 24 26 26 26 27 29 29 29 29 31 33 34 35 35 35
22 20 18 16 15 13 13 14 18 23 24 25 25 26 26 27 29 34 41 46 50 49 47 47 46 46 47 49 52 55 59 61 61 63 63 61 62 63 63 62 59 57 53 49 47 45 43 42 42 41 40 41 41 41 39 37 36 36 33 32 32 29 28 27 26 25 24 23 23 22 22 24 26 28 29 30 30 29 28 27 28 30 32 33 35 36
23 22 21 18 17 15 13 14 17 21 24 24 23 22 23 25 28 32 39 44 49 51 47 45 45 46 47 47 47 53 58 59 59 60 60 59 61 61 61 62 59 58 56 52 48 45 43 42 41 41 39 39 38 37 37 36 36 36 35 34 33 31 29 28 27 27 25 23 22 21 21 23 25 27 28 28 27 26 25 25 27 30 31 32 34 36
21 22 24 22 19 17 15 14 15 18 23 23 18 18 22 24 27 31 37 43 49 50 45 42 44 46 49 47 47 50 54 55 57 58 57 58 60 60 60 60 59 56 55 53 49 47 47 45 42 40 39 37 36 35 35 36 36 36 36 35 35 32 29 28 29 28 26 23 22 21 21 21 22 23 25 25 25 25 24 25 27 30 30 31 33 35
20 22 26 26 23 21 17 14 14 16 21 21 15 17 22 23 26 30 35 42 47 46 42 41 42 43 45 46 46 48 51 54 56 55 54 56 58 59 59 59 59 57 54 53 50 48 48 46 41 39 39 37 36 36 36 35 34 34 34 35 35 33 30 29 29 29 27 24 22 21 21 21 21 22 23 24 25 26 25 25 27 30 30 31 33 34
19 21 26 28 27 25 20 15 14 15 19 20 17 19 20 21 24 27 34 41 44 43 40 40 41 40 42 44 45 47 50 53 54 51 51 53 56 57 57 57 58 59 58 55 53 50 49 48 45 41 39 39 38 37 36 35 34 34 34 34 34 34 32 30 29 29 27 25 23 21 21 22 22 22 24 25 25 26 25 25 27 29 30 30 32 33
23 22 25 27 28 26 23 20 18 16 17 19 19 19 17 18 21 25 31 39 44 42 37 39 41 40 39 40 43 46 46 47 48 48 49 50 53 55 55 55 56 59 59 58 55 52 50 50 48 44 41 41 40 38 37 36 34 34 33 33 33 33 33 32 30 29 28 26 24 22 21 23 23 23 24 25 24 25 26 25 26 28 29 29 30 32
26 27 28 28 26 26 26 26 23 19 17 18 21 20 19 20 21 24 28 33 42 40 32 35 40 40 37 35 39 43 40 39 43 46 47 49 51 52 54 55 55 57 59 58 57 54 51 50 50 48 44 41 40 39 38 37 36 35 34 33 32 32 33 32 31 30 29 28 26 24 23 23 24 24 24 24 24 24 25 25 26 27 27 27 27 29
28 30 31 28 27 27 27 28 28 25 21 20 24 24 23 24 22 23 25 30 38 37 28 31 39 39 36 31 34 37 35 37 43 44 45 46 47 49 52 54 54 56 57 58 58 56 52 51 50 49 47 43 40 37 36 35 35 34 34 33 32 32 32 32 31 30 30 30 28 27 25 24 25 25 24 24 24 23 24 25 26 27 26 26 26 27
29 28 30 31 30 30 30 29 29 29 27 25 26 27 28 29 28 29 30 29 34 35 29 30 37 38 33 28 28 31 33 37 39 40 42 44 45 47 51 53 54 56 56 56 57 56 53 52 50 49 47 45 41 38 35 34 34 33 33 32 32 30 30 31 31 30 30 31 30 28 26 26 25 26 25 24 24 24 23 24 25 26 26 25 24 24
29 28 31 31 30 32 32 32 31 30 29 29 29 30 31 33 35 38 35 29 31 34 28 28 36 36 31 27 25 25 29 34 36 38 42 44 44 46 49 53 55 56 55 54 54 54 53 51 50 48 45 45 44 41 37 35 34 34 32 31 31 30 29 29 29 28 29 29 29 28 27 26 26 26 25 24 24 24 23 23 24 25 25 24 23 22
36 32 31 30 31 33 34 34 33 31 29 28 27 29 29 30 35 38 35 30 30 31 27 28 34 34 29 28 25 22 26 32 35 37 40 43 44 46 49 52 55 55 54 54 51 51 52 51 50 49 46 45 44 42 40 38 36 35 33 31 30 30 29 28 27 27 27 27 28 28 27 27 26 25 24 23 24 24 24 23 22 22 23 22 22 22
43 36 30 31 32 32 36 36 36 37 34 28 27 31 30 27 29 32 32 29 26 26 25 25 31 32 27 27 25 24 26 29 34 37 38 41 43 44 47 48 51 52 52 53 50 48 50 51 51 50 47 45 45 43 41 39 38 38 35 31 29 30 29 28 26 26 26 26 27 27 26 26 25 24 23 23 23 24 23 22 21 20 21 22 23 24
48 40 33 34 33 31 36 39 38 40 38 33 31 32 29 25 26 29 30 27 24 26 24 21 24 26 23 24 23 24 27 27 31 36 36 38 41 42 42 42 43 47 49 51 49 47 48 50 51 49 47 45 45 43 41 39 38 37 37 33 29 30 29 28 26 25 25 25 26 26 26 25 24 24 23 22 22 22 22 22 20 20 20 22 24 25
48 43 37 36 35 32 35 39 38 38 39 38 34 28 28 31 30 29 30 28 27 29 26 20 21 22 21 25 24 24 26 26 27 32 35 36 39 40 39 38 39 42 45 48 48 47 47 49 50 47 46 46 44 44 42 40 38 37 37 34 30 29 29 28 27 25 24 25 26 26 26 25 24 23 23 21 21 22 21 21 20 20 20 21 22 24
46 48 43 38 38 36 34 37 39 40 40 39 34 28 32 37 33 30 33 33 33 35 29 20 20 21 21 23 24 22 24 24 25 30 34 34 36 36 36 36 37 38 41 44 45 45 45 48 49 47 46 45 44 44 44 42 40 38 37 34 31 29 29 29 28 26 25 24 25 25 25 25 25 23 22 22 22 22 22 21 20 20 20 20 21 22
47 54 50 40 38 37 35 36 38 40 40 39 39 37 37 36 32 31 31 30 34 39 32 21 17 20 22 21 20 19 20 22 24 28 31 32 32 33 34 35 36 36 37 39 40 42 43 46 48 46 46 45 45 45 46 45 41 38 36 34 32 29 28 29 29 27 25 24 25 25 25 25 25 24 23 23 23 22 21 20 20 20 19 19 20 20
48 55 53 43 39 39 37 35 35 40 44 44 44 44 40 35 32 34 33 29 32 38 35 27 20 19 21 21 19 18 18 19 21 24 26 29 31 32 32 34 36 36 35 36 38 39 41 45 47 46 46 46 46 46 46 46 43 39 36 35 33 31 28 28 28 28 26 25 25 25 25 25 24 24 24 24 23 22 20 20 20 19 20 19 19 19
49 54 53 49 46 42 39 35 34 41 48 49 48 46 42 37 36 39 40 33 30 33 34 31 26 19 17 18 17 17 17 15 18 20 22 26 29 31 31 31 33 35 34 35 35 36 38 42 45 46 47 47 47 46 46 46 45 42 38 35 34 33 30 27 27 27 27 26 25 24 24 24 24 24 24 24 23 22 20 20 19 19 20 19 19 19
51 55 55 53 49 42 37 36 37 40 46 50 50 47 42 40 37 38 40 36 31 31 30 30 27 20 16 16 14 14 15 14 16 18 20 23 25 27 29 29 29 30 31 32 33 34 36 40 43 45 46 46 46 46 45 45 44 42 41 38 34 32 32 29 27 26 27 27 26 25 24 24 24 24 23 23 23 22 21 19 19 19 19 19 18 18
58 60 58 52 47 40 35 36 40 43 47 51 51 48 45 42 38 35 36 35 32 30 29 29 28 19 16 18 15 12 14 14 15 17 18 20 21 22 26 27 27 25 25 29 34 36 37 39 41 43 44 45 46 46 45 44 44 42 42 40 35 31 31 31 29 27 26 26 27 26 26 25 24 24 23 23 23 22 21 20 19 18 18 19 18 17
68 64 60 59 56 48 41 41 45 48 50 52 53 51 46 44 41 36 33 33 32 29 27 30 27 16 15 19 16 14 15 15 15 16 16 18 19 19 21 24 25 22 21 27 34 38 38 38 40 42 43 43 44 46 45 44 43 42 40 40 37 34 31 31 31 28 26 26 27 27 26 25 24 24 23 23 23 23 22 21 20 19 18 18 17 16
71 68 62 64 65 57 51 51 52 53 53 52 53 52 48 46 43 39 36 33 32 28 25 26 22 14 14 16 14 14 16 15 15 15 14 15 16 17 18 21 23 22 19 22 30 35 38 38 38 39 40 41 42 44 45 44 43 42 40 39 39 37 34 32 31 29 27 26 26 26 26 26 25 24 23 23 23 22 22 22 21 19 18 17 16 15
70 71 62 59 60 57 56 56 53 52 54 53 53 52 51 48 45 42 40 35 31 29 26 24 20 14 13 14 13 14 15 14 15 15 14 13 12 13 14 15 18 20 19 20 25 30 34 36 36 36 38 39 40 43 45 45 44 43 40 38 38 38 37 34 31 30 29 28 26 26 26 25 24 24 23 23 23 22 22 22 21 20 18 16 15 15
75 76 67 60 57 55 58 58 51 50 52 53 53 52 50 48 47 45 41 35 32 30 25 23 21 16 12 13 14 14 14 14 15 16 15 13 11 11 11 12 13 16 18 20 23 27 31 34 36 36 37 37 38 41 45 45 46 45 41 38 37 38 39 36 32 31 31 30 27 25 25 24 24 24 23 23 23 22 22 21 21 20 19 18 17 16
79 77 69 63 58 55 59 59 54 52 52 50 51 52 51 50 48 45 41 35 32 30 24 22 23 17 12 11 13 13 13 13 15 17 15 13 12 11 10 11 12 13 16 19 21 24 28 32 37 38 36 36 37 40 44 45 46 46 42 39 37 38 38 36 33 31 31 30 28 25 23 23 24 24 24 23 23 22 22 21 21 20 20 19 18 16
76 76 71 68 62 56 59 61 57 54 53 51 51 51 52 52 49 46 41 36 33 31 25 22 21 17 13 14 15 16 17 17 18 20 20 16 14 12 11 12 13 13 14 16 19 21 24 28 34 37 37 36 37 40 43 45 45 44 41 38 37 37 36 34 31 30 30 30 28 26 24 23 23 23 23 23 22 22 21 21 20 21 21 20 18 17
74 76 74 76 70 59 58 62 58 54 54 54 53 52 54 56 54 50 46 40 36 31 26 23 20 17 17 20 23 29 31 30 30 31 28 22 17 14 13 13 14 15 13 13 16 19 22 25 30 35 37 35 36 39 42 44 43 41 40 38 37 36 34 31 28 28 29 28 28 27 25 24 24 23 23 22 22 21 21 21 21 21 21 21 20 19
73 79 77 81 78 65 59 62 59 55 56 59 61 60 62 64 61 55 51 46 41 35 30 24 18 18 23 29 34 40 42 40 40 39 35 30 23 17 15 15 15 15 14 12 14 19 23 25 26 31 35 34 35 39 41 42 41 39 39 38 37 35 31 28 27 28 29 29 29 28 27 27 25 24 23 22 22 22 21 22 22 22 22 22 22 21
73 82 79 82 81 70 62 61 61 62 63 66 68 66 66 68 64 60 57 53 47 43 37 28 23 28 35 39 40 44 45 42 42 40 38 37 30 20 16 17 15 14 14 13 14 19 23 23 23 28 32 33 36 38 39 39 38 38 36 36 35 33 30 27 27 27 28 29 29 28 28 27 27 25 23 22 22 22 22 22 22 22 22 23 23 23
73 85 83 83 82 74 64 61 66 71 68 68 71 70 69 69 67 67 66 59 51 46 41 36 35 37 40 41 42 44 44 42 43 42 41 41 37 26 18 16 16 14 14 14 15 19 23 22 22 26 31 36 38 38 38 39 39 38 37 37 35 32 29 28 29 29 28 28 28 27 27 26 25 23 22 21 21 21 21 21 21 22 23 24 26 27
76 88 87 85 81 75 68 68 77 78 69 68 72 73 74 72 68 69 69 62 53 46 42 41 39 38 41 41 40 41 41 40 42 43 42 43 41 33 21 16 16 16 15 17 18 20 23 23 21 26 34 40 41 41 41 42 41 40 40 40 37 33 31 31 31 31 32 31 31 30 29 28 27 25 23 23 22 21 21 21 22 24 26 28 30 30
78 91 92 87 81 76 74 75 77 73 70 73 75 75 78 78 71 70 71 66 55 47 44 43 38 37 40 42 40 40 39 39 41 43 43 44 44 39 27 18 17 17 17 18 19 20 21 21 22 28 38 42 42 42 43 42 42 41 41 42 40 36 34 33 33 35 35 35 35 35 34 32 31 30 30 30 30 30 30 30 30 31 33 33 34 34
81 95 96 89 80 76 76 74 70 68 74 81 79 77 81 80 73 72 75 72 61 51 47 46 42 40 41 42 42 41 38 39 43 44 44 44 45 43 33 22 19 20 18 18 20 21 22 23 25 32 39 42 41 41 42 42 42 42 43 44 41 38 36 34 34 35 36 36 37 37 36 36 36 36 37 37 39 40 40 41 41 41 41 41 39 38
87 96 95 89 79 75 77 78 75 73 77 81 79 76 77 77 71 71 75 75 68 60 54 50 46 43 44 45 45 42 40 43 45 45 45 46 46 44 38 28 23 22 21 19 21 23 24 26 29 33 38 41 42 41 41 43 43 44 45 45 42 39 37 34 34 34 35 36 37 37 38 38 39 40 41 41 43 45 46 47 48 49 50 49 48 45
93 96 94 89 81 77 79 81 79 76 76 79 79 74 74 77 75 73 76 77 71 66 62 58 52 48 47 49 47 44 44 47 47 46 46 47 47 46 43 35 27 22 21 22 22 24 26 29 31 32 34 37 39 40 43 46 45 45 46 45 42 40 38 36 35 36 36 37 38 38 39 40 41 42 44 45 46 47 48 49 50 51 52 52 52 51
97 99 96 90 82 78 81 81 78 77 78 80 79 75 75 80 80 78 80 80 74 69 69 66 61 55 53 54 53 49 48 48 47 47 47 47 47 45 44 40 33 26 23 22 22 26 31 33 33 33 34 34 35 38 44 47 47 46 47 45 43 43 42 41 41 41 42 42 43 43 43 43 43 45 46 46 47 48 49 49 49 50 50 50 51 52
99 99 96 89 81 78 81 81 77 78 80 80 80 79 79 84 85 83 83 82 77 71 70 70 67 63 61 62 61 57 53 49 47 47 47 45 45 44 43 42 38 31 27 25 25 29 34 37 37 37 37 35 35 38 44 47 46 47 47 45 43 43 43 43 44 45 46 46 46 45 45 45 45 46 46 46 47 48 49 48 47 48 48 48 49 49
99 100 96 88 80 77 78 78 77 80 84 83 82 81 83 88 89 84 81 82 79 74 71 70 69 66 65 66 66 64 58 52 48 48 49 47 46 44 44 42 40 37 34 31 30 33 37 40 41 42 41 38 38 41 44 46 46 47 47 45 43 42 43 44 45 46 46 47 46 45 45 45 44 44 45 46 47 48 50 50 49 47 46 47 46 46
99 99 97 89 83 81 81 79 81 85 86 85 85 85 87 90 88 81 80 81 81 76 73 71 69 66 66 67 67 67 65 58 52 50 52 51 48 46 45 42 41 41 39 37 37 39 42 43 45 46 44 41 41 43 45 46 48 49 49 48 47 46 45 46 46 47 47 47 47 46 45 44 43 43 44 45 46 48 50 52 51 49 48 47 46 45
99 99 99 94 88 87 87 85 86 88 87 87 89 90 91 90 86 83 83 82 81 78 74 71 69 66 66 67 66 67 69 64 58 55 55 53 50 48 46 43 42 43 41 39 41 44 46 47 49 50 49 46 45 45 46 48 49 50 50 51 51 49 47 45 46 46 46 47 46 46 46 45 44 43 44 45 46 47 50 52 53 52 50 48 47 47
98 98 100 98 91 88 88 88 87 87 87 87 88 89 93 92 86 83 83 83 82 79 74 73 72 68 67 70 68 65 67 67 66 64 62 60 56 53 49 46 46 47 45 43 43 46 48 50 52 53 52 51 49 49 50 50 50 51 51 51 51 50 48 47 47 46 45 44 42 42 44 45 45 45 45 45 45 46 47 49 51 51 50 48 48 48
97 96 98 98 93 88 87 86 83 84 86 87 85 86 91 93 86 80 80 82 82 77 73 74 77 73 71 72 70 65 64 66 67 67 68 67 64 60 56 54 53 54 52 50 47 47 47 48 50 50 50 51 51 51 53 53 52 52 51 49 48 49 48 47 47 47 46 45 42 41 42 43 43 45 46 45 44 43 44 45 46 48 49 48 48 49
94 94 96 96 94 89 87 86 84 85 88 88 86 87 91 93 88 82 80 80 80 78 74 74 79 78 74 72 71 66 63 64 65 67 68 68 68 65 64 63 61 60 59 58 56 53 50 48 48 46 45 46 47 47 49 50 49 48 47 46 46 47 47 47 46 46 46 46 45 44 44 43 42 42 43 44 43 42 42 41 42 44 46 47 48 50
94 93 93 95 94 90 86 85 84 87 89 89 89 90 92 93 89 84 82 80 78 77 75 74 77 77 72 70 70 67 65 63 63 65 67 67 68 69 68 67 66 64 63 62 62 61 60 57 55 49 44 42 43 42 41 41 40 39 39 40 41 41 42 44 45 44 45 46 46 46 47 45 43 41 40 40 41 40 40 40 39 40 41 42 45 47
92 91 90 91 91 87 84 83 84 87 90 90 90 91 91 91 89 85 83 81 77 73 71 72 75 75 71 68 68 68 67 61 57 62 66 64 65 68 66 64 65 63 60 60 61 63 64 62 59 56 50 45 42 38 35 34 33 33 33 33 33 32 32 35 39 40 41 42 43 44 45 44 43 41 40 39 39 38 38 38 39 39 39 39 41 42
91 90 88 89 89 86 83 82 83 86 88 87 88 89 89 90 91 88 84 81 78 74 69 69 71 71 69 65 62 63 65 59 54 60 65 63 64 68 65 61 61 59 56 56 56 58 61 60 59 58 55 49 44 39 37 35 33 31 30 29 27 27 27 28 31 34 36 38 39 40 41 40 40 40 39 37 37 36 36 36 36 37 38 39 39 40
93 93 91 91 92 86 81 78 78 81 84 84 86 88 89 90 93 91 85 81 80 76 70 68 68 69 69 64 57 57 61 59 54 59 63 63 67 70 66 63 63 60 59 58 57 58 60 60 60 59 57 53 49 44 40 37 33 30 29 28 27 28 27 28 29 31 34 37 38 37 37 37 37 38 38 37 36 34 34 34 34 34 35 36 38 39